Location: Poughquag
(41.6090°N, 73.6820°W)
Time: 12:40:21
(UTC-04:00)

Vanguard 1 Rocket - Pass Details

Date: 06 June 2020
Orbit: 653 x 4224 km, 34.3° (Epoch: 06 July)

Event Time Altitude Azimuth Distance (km) Brightness Sun altitude
Rises 03:02:30 0° 270° (W) 7,826 11.9 -19.1°
Reaches altitude 10° 03:08:35 10° 267° (W) 6,347 11.3 -18.5°
Maximum altitude 03:25:50 59° 195° (SSW) 2,312 9.1 -16.7°
Drops below altitude 10° 03:34:35 10° 118° (ESE) 3,399 10.4 -15.7°
Sets 03:36:50 0° 114° (ESE) 4,081 10.9 -15.4°
